Weather in Sete

France     43°24′38″N   3°40′40″E
temp.,
°C
wind,
m/s
gust,
m/s
humid.,
%
clouds,
%
prec.,
mm/h
press.,
hPa
HPBL,
m
18 may, tue
tue1823:00+15nw511615 0.0 1020911
02:00+13wnw510635 0.0 1020576
05:00+12w587269 0.0 1019286
08:00+12wnw596842 0.0 1019341
11:00+17nw114524 0.0 1018570
14:00+16ssw224697 0.0 1016730
17:00+17n3541100 0.0 1016761
20:00+14w2560100 0.2 1017419
19 may, wed
wed1923:00+13nw81263100 0.0 1019864
02:00+12nw8146938 0.0 1020547
05:00+11wnw61272100 0.0 1020586
08:00+13nw71362100 0.0 1021826
11:00+16nw91247100 0.0 10211313
14:00+19nw913355 0.0 10211631
17:00+20nw912359 0.0 10201939
20:00+17nw814505 0.0 10211359
20 may, thu
thu2023:00+15nw8125696 0.0 1024771
02:00+13nw71260100 0.0 1024581
05:00+12nw6126260 0.0 1023553
08:00+13nw59565 0.0 1024477
11:00+18n35395 0.0 10231077
14:00+21ne132840 0.0 10221652
17:00+22s2434100 0.0 10201180
20:00+19s3346100 0.0 1021156
21 may, fri
fri2123:00+16ese246371 0.0 1021168
02:00+15ese366774 0.0 1020194
05:00+14e236997 0.0 101975
08:00+14ene4658100 0.0 1019261
11:00+17e576584 0.0 1019515
14:00+19se710706 0.0 1017851
17:00+18se710727 0.0 1015830
20:00+17se71083100 0.1 1013842
22 may, sat
sat2223:00+16se6108462 0.2 1013859
02:00+15sse2488100 0.4 1011326
05:00+14nw71269100 0.3 1012628
08:00+14wnw7963100 0.4 1013401
11:00+14wnw6861100 0.0 1015952
14:00+19wnw573931 0.0 10141528
17:00+20wnw793542 0.0 10131771
20:00+18wnw7104217 0.0 10151291